Cartersville, GA

9:10 PM EST on November 14, 2019 (GMT -0500)
Cartersville

Weather History for KVPC - September, 2019

Change the Weather History Date:

Wednesday, September 11, 2019

  Actual Average Record
Temperature  
Mean Temperature 83 °F 73 °F  
Max Temperature 96 °F 85 °F 97 °F (2010)
Min Temperature 70 °F 62 °F 52 °F (2011)
Degree Days  
Heating Degree Days 0 0  
Month to date heating degree days 0  
Since 1 July heating degree days 0  
Cooling Degree Days 18 8  
Month to date cooling degree days 108  
Year to date cooling degree days 1373  
Growing Degree Days 33 (Base 50)    
Moisture  
Dew Point 67 °F    
Average Humidity 66    
Maximum Humidity 93    
Minimum Humidity 34    
Precipitation  
Precipitation 0.00 in 0.13 in 4.11 in (2017)
Month to date precipitation 1.09  
Year to date precipitation 35.68  
Sea Level Pressure  
Sea Level Pressure 30.19 in    
Wind  
Wind Speed 1 mph ()    
Max Wind Speed 5 mph    
Max Gust Speed -    
Visibility 9.8 miles    
Events      
T = Trace of Precipitation, MM = Missing Value Source: Averaged Metar Reports

Daily Weather History Graph

Daily Weather History Graph

Search for Another Location

Airport or City:

Astronomy

Sep. 11, 2019 Rise Set
Actual Time 7:19 AM EDT 7:51 PM EDT
Civil Twilight 6:54 AM EDT 8:17 PM EDT
Nautical Twilight 6:24 AM EDT 8:46 PM EDT
Astronomical Twilight 5:54 AM EDT 9:16 PM EDT
Moon 6:55 PM EDT (9/11) 4:51 AM EDT (9/11)
Length of Visible Light 13h 22m
Length of Day
12h 32m
Waxing Gibbous, 94% of the Moon is Illuminated
Sep 11
Waxing Gibbous
Sep 14
Full
Sep 21
Last Quarter
Sep 28
New
Oct 5
First Quarter

Hourly Weather History & Observations

Time (EDT) Temp. Heat Index Dew Point Humidity Pressure Visibility Wind Dir Wind Speed Gust Speed Precip Events Conditions
12:53 AM 73.0 °F - 66.0 °F 79% 30.21 in 10.0 mi Calm Calm - N/A   Clear
1:53 AM 72.0 °F - 66.0 °F 81% 30.20 in 10.0 mi Calm Calm - N/A   Clear
2:53 AM 73.0 °F - 66.9 °F 81% 30.19 in 10.0 mi NNE 3.5 mph - N/A   Clear
3:53 AM 71.1 °F - 66.0 °F 84% 30.20 in 10.0 mi Calm Calm - N/A   Clear
4:53 AM 71.1 °F - 66.9 °F 87% 30.19 in 10.0 mi Calm Calm - N/A   Clear
5:53 AM 70.0 °F - 66.9 °F 90% 30.22 in 10.0 mi Calm Calm - N/A   Clear
6:53 AM 71.1 °F - 68.0 °F 90% 30.24 in 9.0 mi Calm Calm - N/A   Clear
7:53 AM 70.0 °F - 68.0 °F 93% 30.25 in 7.0 mi Calm Calm - N/A   Clear
8:53 AM 75.9 °F - 69.1 °F 79% 30.27 in 9.0 mi ENE 3.5 mph - N/A   Clear
9:53 AM 81.0 °F 84.1 °F 69.1 °F 67% 30.27 in 10.0 mi Variable 3.5 mph - N/A   Clear
10:53 AM 84.9 °F 89.4 °F 70.0 °F 61% 30.27 in 10.0 mi Calm Calm - N/A   Clear
11:53 AM 88.0 °F 92.9 °F 70.0 °F 55% 30.26 in 10.0 mi Variable 3.5 mph - N/A   Clear
12:53 PM 90.0 °F 95.4 °F 70.0 °F 52% 30.24 in 10.0 mi Variable 3.5 mph - N/A   Mostly Cloudy
1:53 PM 91.9 °F 96.9 °F 69.1 °F 47% 30.21 in 10.0 mi Variable 3.5 mph - N/A   Mostly Cloudy
2:53 PM 95.0 °F 100.7 °F 69.1 °F 43% 30.17 in 10.0 mi Calm Calm - N/A   Scattered Clouds
3:53 PM 96.1 °F 99.3 °F 66.0 °F 37% 30.15 in 10.0 mi Variable 3.5 mph - N/A   Clear
4:53 PM 95.0 °F 97.4 °F 64.9 °F 37% 30.13 in 10.0 mi Calm Calm - N/A   Clear
5:53 PM 95.0 °F 96.0 °F 63.0 °F 34% 30.11 in 10.0 mi South 3.5 mph - N/A   Scattered Clouds
6:53 PM 93.0 °F 94.6 °F 64.0 °F 38% 30.11 in 10.0 mi SSE 4.6 mph - N/A   Clear
7:53 PM 84.9 °F 87.1 °F 66.0 °F 53% 30.11 in 10.0 mi Calm Calm - N/A   Clear
8:53 PM 80.1 °F 82.7 °F 68.0 °F 67% 30.12 in 10.0 mi Calm Calm - N/A   Mostly Cloudy
9:53 PM 79.0 °F - 66.9 °F 66% 30.13 in 10.0 mi Calm Calm - N/A   Clear
10:53 PM 75.9 °F - 68.0 °F 76% 30.13 in 10.0 mi Calm Calm - N/A   Clear
11:53 PM 73.0 °F - 68.0 °F 84% 30.13 in 10.0 mi Calm Calm - N/A   Clear